{"data":{"norad_id":62165,"epoch":"2026-05-24T22:24:34.625376Z","epoch_age_seconds":74048,"freshness":"FRESH","line1":"1 62165U 24225C   26144.93373409  .00003924  00000+0  33641-3 0  9997","line2":"2 62165  70.0019 332.2951 0002705 264.6683  95.4167 14.98339210 81295","mean_motion":14.9833921,"eccentricity":0.0002705,"inclination_deg":70.0019,"raan_deg":332.2951,"arg_perigee_deg":264.6683,"mean_anomaly_deg":95.4167,"bstar":0.00033641,"rev_number":8129,"period_min":96.106408374643,"perigee_km":570.14739045216,"apogee_km":573.90742939793,"semimajor_km":6950.164409925,"source":"CELESTRAK","updated_at":"2026-05-25T13:38:19.599786Z"}}